Total_Precipitation_Accumulation
0.87 0.83 0.77 0.71 0.68 0.64 0.60 0.56 0.53 0.49 0.46 0.42 0.39 0.35 0.33 0.33 0.38 0.46 0.48 0.47 0.50 0.51 0.52 0.54 0.60 0.64 0.72 0.72 0.75 0.81 0.94 1.09 1.21 1.05 0.87 0.80 0.79 0.80 0.81 0.78 0.69 0.59 0.55
0.77 0.73 0.66 0.61 0.57 0.53 0.48 0.44 0.39 0.38 0.38 0.37 0.36 0.34 0.30 0.30 0.35 0.40 0.43 0.42 0.46 0.48 0.49 0.48 0.50 0.55 0.64 0.65 0.68 0.72 0.80 0.93 1.04 1.07 0.93 0.79 0.72 0.71 0.72 0.71 0.54 0.45 0.44
0.72 0.74 0.69 0.61 0.55 0.51 0.48 0.44 0.41 0.42 0.41 0.38 0.37 0.34 0.30 0.28 0.30 0.33 0.35 0.40 0.42 0.44 0.42 0.41 0.44 0.47 0.52 0.55 0.61 0.65 0.72 0.77 0.88 0.92 0.81 0.71 0.62 0.57 0.65 0.66 0.57 0.57 0.39
0.68 0.74 0.74 0.69 0.63 0.57 0.52 0.51 0.47 0.44 0.41 0.38 0.34 0.31 0.29 0.26 0.26 0.27 0.27 0.33 0.39 0.37 0.33 0.35 0.38 0.38 0.40 0.46 0.50 0.59 0.69 0.78 0.82 0.82 0.73 0.62 0.59 0.56 0.67 0.74 0.69 0.60 0.48
0.64 0.65 0.63 0.60 0.60 0.57 0.53 0.51 0.47 0.42 0.39 0.37 0.33 0.31 0.28 0.25 0.22 0.23 0.24 0.26 0.34 0.34 0.31 0.31 0.30 0.30 0.33 0.36 0.39 0.48 0.62 0.77 0.82 0.85 0.78 0.67 0.64 0.71 0.77 0.72 0.67 0.57 0.47
0.62 0.62 0.58 0.53 0.51 0.48 0.46 0.42 0.38 0.37 0.35 0.35 0.36 0.33 0.29 0.26 0.26 0.24 0.22 0.26 0.31 0.34 0.35 0.32 0.28 0.26 0.25 0.26 0.28 0.34 0.47 0.64 0.81 0.92 0.88 0.81 0.74 0.80 0.87 0.82 0.84 0.78 0.68
0.68 0.63 0.58 0.56 0.52 0.45 0.41 0.40 0.39 0.40 0.38 0.38 0.35 0.36 0.35 0.29 0.24 0.22 0.20 0.23 0.30 0.40 0.43 0.41 0.32 0.27 0.33 0.36 0.31 0.27 0.33 0.43 0.65 0.89 1.01 0.93 0.85 0.92 1.03 1.01 0.98 0.95 0.85
0.67 0.61 0.57 0.55 0.53 0.48 0.45 0.46 0.42 0.41 0.42 0.42 0.38 0.37 0.38 0.31 0.25 0.24 0.23 0.27 0.32 0.38 0.41 0.40 0.44 0.44 0.37 0.34 0.31 0.36 0.46 0.55 0.62 0.70 0.90 0.92 0.80 0.81 0.96 0.99 0.93 0.88 0.83
0.60 0.54 0.52 0.50 0.52 0.50 0.49 0.48 0.44 0.44 0.44 0.43 0.39 0.38 0.40 0.38 0.31 0.31 0.34 0.38 0.36 0.36 0.35 0.33 0.36 0.39 0.33 0.30 0.35 0.46 0.56 0.61 0.52 0.61 0.71 0.81 0.85 0.79 0.76 0.81 0.95 1.02 1.02
0.51 0.44 0.43 0.46 0.48 0.45 0.45 0.47 0.45 0.45 0.46 0.43 0.39 0.39 0.40 0.39 0.29 0.29 0.34 0.38 0.39 0.36 0.38 0.39 0.34 0.29 0.28 0.29 0.38 0.52 0.64 0.65 0.70 0.86 1.03 1.11 1.07 0.97 0.80 0.84 1.04 1.14 1.17
0.41 0.39 0.41 0.46 0.49 0.44 0.44 0.47 0.46 0.44 0.47 0.45 0.40 0.38 0.37 0.30 0.25 0.23 0.23 0.28 0.33 0.35 0.41 0.47 0.43 0.31 0.29 0.27 0.35 0.49 0.61 0.67 0.93 1.25 1.31 1.21 1.10 1.02 0.90 0.85 0.91 1.01 1.13
0.43 0.42 0.44 0.45 0.35 0.33 0.46 0.49 0.44 0.47 0.49 0.45 0.41 0.39 0.33 0.28 0.19 0.14 0.15 0.19 0.25 0.33 0.49 0.47 0.42 0.36 0.30 0.30 0.39 0.55 0.62 0.83 1.13 1.33 1.25 1.06 0.93 0.84 0.78 0.73 0.74 0.79 0.90
0.54 0.53 0.49 0.47 0.43 0.43 0.47 0.46 0.43 0.44 0.41 0.34 0.31 0.29 0.27 0.27 0.22 0.12 0.11 0.14 0.20 0.26 0.41 0.44 0.42 0.38 0.39 0.53 0.61 0.72 0.82 1.01 1.22 1.22 1.07 0.94 0.84 0.76 0.67 0.67 0.65 0.68 0.70
0.62 0.57 0.51 0.50 0.51 0.48 0.44 0.36 0.34 0.32 0.30 0.30 0.27 0.24 0.24 0.24 0.18 0.13 0.13 0.17 0.22 0.26 0.36 0.48 0.57 0.61 0.64 0.74 0.83 0.92 1.02 1.12 1.09 0.99 0.87 0.80 0.73 0.70 0.66 0.62 0.64 0.65 0.71
0.62 0.57 0.50 0.42 0.42 0.45 0.36 0.23 0.20 0.20 0.16 0.19 0.19 0.16 0.19 0.20 0.14 0.15 0.16 0.18 0.24 0.30 0.36 0.54 0.74 0.81 0.85 0.90 0.89 0.94 1.01 0.98 0.96 0.90 0.82 0.73 0.68 0.67 0.66 0.64 0.67 0.63 0.66
0.54 0.51 0.42 0.34 0.32 0.28 0.26 0.22 0.14 0.11 0.11 0.11 0.12 0.12 0.12 0.14 0.12 0.12 0.15 0.20 0.27 0.36 0.43 0.64 0.82 0.87 0.88 0.90 0.87 0.87 0.89 0.86 0.82 0.79 0.78 0.73 0.69 0.66 0.65 0.66 0.68 0.66 0.67
0.46 0.40 0.30 0.23 0.22 0.21 0.22 0.29 0.30 0.20 0.10 0.08 0.09 0.10 0.11 0.13 0.12 0.12 0.15 0.21 0.27 0.36 0.45 0.63 0.81 0.94 0.96 0.89 0.83 0.82 0.86 0.86 0.81 0.78 0.73 0.71 0.65 0.61 0.61 0.62 0.61 0.61 0.62
0.30 0.24 0.19 0.18 0.15 0.14 0.13 0.17 0.27 0.33 0.28 0.20 0.13 0.10 0.11 0.13 0.13 0.13 0.17 0.22 0.31 0.36 0.49 0.64 0.76 0.84 0.87 0.88 0.82 0.79 0.81 0.83 0.80 0.73 0.67 0.65 0.61 0.57 0.56 0.60 0.58 0.52 0.50
0.21 0.19 0.16 0.14 0.11 0.10 0.09 0.11 0.15 0.20 0.25 0.26 0.23 0.16 0.14 0.15 0.19 0.21 0.21 0.25 0.33 0.39 0.46 0.56 0.66 0.68 0.65 0.66 0.66 0.67 0.71 0.74 0.70 0.62 0.58 0.60 0.60 0.57 0.56 0.54 0.49 0.39 0.40
0.15 0.10 0.09 0.08 0.08 0.09 0.08 0.09 0.11 0.14 0.19 0.24 0.24 0.19 0.18 0.25 0.34 0.33 0.28 0.27 0.28 0.32 0.39 0.49 0.55 0.53 0.51 0.50 0.48 0.48 0.51 0.54 0.53 0.52 0.51 0.50 0.51 0.51 0.49 0.45 0.41 0.39 0.39
0.08 0.07 0.06 0.06 0.07 0.08 0.07 0.07 0.07 0.09 0.14 0.19 0.17 0.13 0.18 0.27 0.36 0.38 0.38 0.37 0.35 0.35 0.36 0.38 0.41 0.45 0.45 0.43 0.40 0.37 0.38 0.40 0.42 0.44 0.46 0.47 0.47 0.46 0.41 0.37 0.34 0.30 0.30
0.05 0.05 0.04 0.05 0.06 0.05 0.04 0.04 0.04 0.06 0.10 0.13 0.14 0.13 0.19 0.23 0.29 0.33 0.39 0.45 0.44 0.42 0.39 0.37 0.38 0.42 0.45 0.45 0.39 0.36 0.35 0.37 0.39 0.42 0.45 0.44 0.42 0.37 0.33 0.31 0.28 0.27 0.27
0.02 0.02 0.02 0.02 0.02 0.02 0.02 0.03 0.03 0.04 0.07 0.10 0.11 0.13 0.16 0.22 0.25 0.28 0.34 0.41 0.46 0.45 0.41 0.38 0.40 0.43 0.44 0.45 0.41 0.35 0.32 0.31 0.32 0.34 0.39 0.40 0.37 0.34 0.30 0.28 0.26 0.26 0.26
0.01 0.01 0.01 0.01 0.01 0.01 0.01 0.01 0.02 0.02 0.04 0.05 0.07 0.11 0.15 0.20 0.22 0.25 0.31 0.36 0.41 0.45 0.43 0.41 0.41 0.41 0.40 0.42 0.38 0.29 0.26 0.25 0.24 0.25 0.30 0.33 0.31 0.28 0.25 0.24 0.24 0.25 0.26
0.01 0.01 0.01 0.01 0.01 0.01 0.01 0.02 0.02 0.02 0.03 0.04 0.06 0.09 0.10 0.14 0.18 0.20 0.24 0.30 0.35 0.39 0.39 0.37 0.38 0.35 0.32 0.32 0.30 0.24 0.23 0.23 0.23 0.23 0.25 0.27 0.25 0.25 0.25 0.25 0.24 0.24 0.24
0.01 0.01 0.01 0.01 0.01 0.01 0.02 0.02 0.03 0.04 0.05 0.05 0.06 0.07 0.08 0.09 0.13 0.15 0.17 0.19 0.23 0.28 0.31 0.32 0.30 0.28 0.25 0.21 0.22 0.22 0.21 0.19 0.19 0.20 0.24 0.27 0.27 0.26 0.27 0.27 0.25 0.26 0.27